Погода в Скалее

Италия     39°48′42″N   15°47′22″E
темп.,
°C
ветер,
м/с
пор.,
м/с
влажн.,
%
обл.,
%
осадки,
мм/ч
давл.,
гПа
погр.,
м
7 мая, пт
пт723:00+16ссв1270100 0.0 101870
02:00+17св3366100 0.0 1016145
05:00+17зюз1269100 0.0 101596
08:00+17св117099 0.0 101648
11:00+17з12644 0.0 1016161
14:00+17сз23655 0.0 1016309
17:00+17сз12630 0.0 1015317
20:00+17с11720 0.0 101642
8 мая, сб
сб823:00+17ююв11730 0.0 101613
02:00+17в11740 0.0 101655
05:00+16всв11710 0.0 101564
08:00+17сз00701 0.0 101670
11:00+16ююз01725 0.0 1017111
14:00+17зсз12732 0.0 1018199
17:00+17ююв01764 0.0 1017138
20:00+17юв117718 0.0 101881
9 мая, вс
вс923:00+17ююв11791 0.0 101913
02:00+17вюв22760 0.0 101931
05:00+17в22710 0.0 101832
08:00+18ююв11710 0.0 101930
11:00+18з21720 0.0 1020143
14:00+18ссз22680 0.0 1020174
17:00+19с32650 0.0 1018133
20:00+19ссв11687 0.0 101811
10 мая, пн
пн1023:00+18вюв3368100 0.0 101918
02:00+18в336499 0.0 101917
05:00+18в33645 0.0 101817
08:00+19вюв11685 0.0 101921
11:00+19зсз21610 0.0 1019110
14:00+19сз12630 0.0 1018119
17:00+20ссз22620 0.0 1017126
20:00+20ссв12664 0.0 101713
11 мая, вт
вт1123:00+19в446388 0.0 101715
02:00+19в3358100 0.0 101614
05:00+19в44550 0.0 101516
08:00+19юв11585 0.0 101620
11:00+19ююз11605 0.0 101750
14:00+20ссв11500 0.0 101685
17:00+21с225148 0.0 1015127
20:00+20св11595 0.0 101411